Theta_e
309 309 309 309 310 310 309 310 310 312 312 313 314 317 319 318 317 317 320 324 326 327 328 327 324 321 321 322 324 326 326 330 331 330 329 328 329 328 328 324 321 323 323 322 322 323 324 324 325 325 325 326 328 327 326 326 324 324 326 328 328 330 331 331 332 331 326 323 323 323 324 324 325 325 325 325 326 327 326 327 329 327 327 329 329 330 329 326
309 310 309 309 310 310 310 310 310 312 312 313 314 316 320 319 316 316 319 324 325 327 328 327 326 323 322 321 323 323 324 329 327 325 328 330 330 325 322 322 320 322 324 322 322 324 324 324 325 325 325 326 328 328 327 326 324 324 327 328 329 330 330 330 330 327 323 322 323 323 324 324 324 324 324 325 325 326 325 327 329 328 328 328 328 327 325 323
309 309 309 309 309 309 310 310 309 311 312 312 313 315 319 320 316 314 317 322 325 326 328 327 326 325 323 321 322 322 323 328 324 322 328 330 330 325 318 319 318 320 323 322 322 324 324 325 325 326 325 326 328 329 328 327 325 323 326 328 329 330 328 326 325 323 321 322 322 323 324 325 324 324 324 324 324 325 325 326 328 329 329 328 328 326 324 322
309 309 309 310 310 309 310 311 309 310 311 311 313 313 317 320 316 314 315 319 323 325 327 327 327 325 322 321 321 320 323 326 323 324 328 329 330 326 318 317 318 318 321 322 322 323 324 326 326 326 326 326 328 329 329 328 326 325 325 326 328 328 327 324 323 320 320 320 321 322 324 324 324 324 324 324 325 325 325 326 326 328 329 328 328 325 323 321
309 309 309 310 310 309 310 311 309 309 311 311 313 313 315 319 317 315 315 317 319 323 326 327 327 326 323 322 320 320 325 326 324 325 327 328 330 328 319 317 319 319 321 322 322 323 324 326 326 326 326 326 328 329 330 329 327 327 326 326 326 327 326 323 320 319 319 319 320 320 321 324 324 324 324 323 325 325 324 325 325 327 328 328 327 323 321 321
308 309 309 310 310 310 310 311 309 309 311 312 313 313 314 317 317 316 316 317 318 320 325 327 327 326 324 323 321 321 325 327 325 325 326 327 329 328 320 317 319 319 321 321 322 323 323 325 326 326 327 327 328 329 331 330 328 328 328 328 327 327 326 321 317 318 318 318 319 319 319 323 324 323 323 323 324 324 324 324 324 325 327 326 325 322 320 320
308 308 309 310 310 310 310 310 309 310 311 311 312 313 314 316 316 315 316 318 318 319 324 327 327 327 325 323 322 323 324 325 325 324 324 326 328 328 320 318 320 320 321 322 322 324 324 325 326 326 327 327 329 329 331 331 329 328 329 330 327 328 327 320 317 317 317 318 318 318 319 321 322 322 322 323 324 324 324 324 324 325 326 327 326 324 321 319
308 308 309 309 310 311 310 310 309 309 311 311 312 312 313 314 315 314 314 317 318 319 323 327 327 327 326 324 322 323 323 322 323 324 323 324 328 328 322 320 322 320 321 322 322 324 325 326 326 327 328 328 329 330 331 332 330 329 329 329 326 326 325 318 316 317 316 316 317 317 318 318 319 320 321 322 323 324 324 324 323 326 328 328 327 326 323 321
308 308 308 309 310 310 310 310 309 309 310 310 312 312 312 313 315 314 313 315 318 319 322 326 327 326 325 324 322 322 322 319 320 324 324 323 325 326 323 321 322 321 321 322 322 324 325 326 327 327 329 330 331 331 332 332 332 331 329 328 327 324 321 318 316 317 316 316 316 316 317 318 318 319 319 320 321 322 322 323 322 325 330 330 328 326 324 322
308 308 308 308 309 310 310 311 310 308 309 311 311 312 312 313 314 314 313 313 316 318 321 325 326 327 325 324 322 321 321 318 317 321 324 323 323 324 322 321 322 322 322 322 322 324 325 326 327 328 329 329 331 332 332 333 331 329 328 327 328 326 321 318 317 317 316 316 316 316 317 318 318 317 318 319 319 320 320 322 320 322 330 331 328 326 323 322
308 309 308 308 309 309 310 311 310 309 310 310 311 312 312 313 313 312 311 312 315 317 319 323 325 326 325 323 322 321 320 319 317 317 323 323 322 322 322 321 321 322 322 322 323 324 325 325 326 328 330 329 330 331 332 332 330 328 327 327 329 327 322 318 318 318 316 316 316 315 317 318 317 317 318 319 319 319 320 322 321 321 327 331 329 327 324 321
308 309 308 308 308 309 310 310 309 309 310 310 311 312 312 313 313 312 310 310 313 315 317 321 324 325 325 323 322 321 320 319 317 317 322 323 322 322 321 321 321 321 322 322 323 324 324 325 325 328 330 329 330 331 331 330 328 328 326 328 330 326 323 320 318 319 316 316 317 315 317 317 317 317 317 319 319 319 321 321 321 321 324 328 329 329 327 323
309 309 308 308 308 309 309 309 309 310 311 311 311 312 312 312 313 314 311 308 310 313 315 318 321 324 323 322 322 322 321 320 319 320 322 323 321 322 321 321 321 321 321 322 323 323 324 325 324 326 327 328 330 327 327 328 327 328 325 326 329 326 325 322 319 319 316 317 317 317 320 320 318 318 317 319 319 319 321 321 322 322 322 325 327 329 329 326
309 309 309 308 309 310 308 308 310 310 311 311 312 311 311 312 313 315 312 308 308 310 314 316 319 322 322 321 322 322 321 321 322 322 323 322 321 322 322 321 321 321 321 322 322 322 324 324 323 324 324 326 327 322 323 328 326 326 325 326 328 329 328 325 323 321 318 318 316 317 321 322 322 321 318 318 319 319 320 321 322 323 322 323 325 328 330 329
309 310 309 309 310 310 308 309 310 310 311 311 311 311 311 312 313 316 314 311 310 309 311 314 317 321 321 321 322 322 321 321 321 323 323 322 322 322 322 322 321 322 321 321 322 322 323 324 323 323 323 323 322 321 322 325 325 325 327 328 328 329 329 327 326 322 320 318 317 319 321 323 325 326 323 319 319 319 319 320 322 324 323 322 324 327 330 330
308 309 309 310 310 309 308 309 310 310 311 310 311 311 311 312 314 316 315 313 311 309 309 314 319 321 320 322 323 322 321 321 321 322 323 322 321 322 321 321 321 322 321 320 321 321 322 323 323 322 322 322 320 321 323 322 323 324 327 329 328 328 327 327 327 323 321 318 317 320 323 326 327 325 324 319 319 320 319 320 321 323 323 322 324 326 329 331
308 308 309 310 310 309 308 309 310 310 310 310 310 310 309 312 314 315 314 312 312 310 310 314 320 321 320 322 323 322 321 321 321 321 322 322 322 321 321 321 321 322 322 321 321 322 323 323 323 323 322 322 321 321 324 325 325 325 326 327 327 327 326 326 328 325 321 318 317 319 322 327 325 320 320 319 319 320 319 320 320 322 323 323 324 327 329 330
308 308 309 310 309 309 309 309 310 310 309 309 310 309 309 312 314 314 313 312 312 312 311 312 315 317 320 322 321 322 322 321 321 321 321 322 322 322 321 320 320 321 322 322 322 322 324 322 322 325 325 324 324 322 324 327 326 325 326 325 325 326 325 325 327 325 322 320 319 319 319 322 323 319 318 318 319 319 319 319 320 320 322 324 325 327 329 329
308 308 309 310 309 309 309 309 309 309 309 309 310 310 312 313 314 314 313 312 312 313 313 313 313 314 318 318 317 320 322 321 322 321 321 322 323 323 322 321 321 320 321 322 322 322 323 321 322 325 326 326 324 322 324 326 325 325 325 323 323 325 325 324 323 322 321 322 320 318 317 318 320 320 319 317 317 318 319 319 319 319 320 323 326 327 328 327
308 309 309 309 308 308 309 309 309 309 308 309 310 313 314 313 313 313 312 311 311 311 312 313 313 313 314 313 315 320 322 321 322 322 322 322 322 323 322 322 321 320 321 322 322 322 322 323 324 326 326 325 323 321 322 324 325 325 324 323 323 324 325 323 320 320 320 321 320 319 319 319 319 320 320 319 317 316 318 318 318 319 319 321 324 327 327 326
308 308 309 308 308 307 308 309 308 309 309 308 310 313 313 312 312 312 312 311 310 310 311 311 311 312 313 312 314 320 322 321 322 323 323 323 322 322 322 321 321 321 321 322 322 322 322 326 327 327 326 324 323 322 322 323 324 324 323 323 323 324 325 322 318 319 319 319 320 320 320 321 321 321 320 321 319 316 317 317 318 318 318 320 322 324 324 324
307 308 308 308 308 307 308 309 308 309 309 309 310 312 313 312 312 312 312 311 310 309 310 311 310 310 312 312 313 315 318 322 323 323 323 323 323 322 321 321 321 321 321 322 323 323 324 326 326 325 325 324 323 323 323 323 324 325 325 324 324 324 325 322 318 318 318 319 322 322 322 322 321 322 321 320 320 319 318 317 318 318 318 318 319 319 320 321
307 307 308 308 307 307 308 308 308 309 309 309 310 311 313 313 312 311 310 310 310 309 309 310 310 310 311 312 313 311 314 321 323 322 323 322 322 321 320 321 321 320 321 322 324 324 325 326 325 324 324 324 325 324 324 324 324 326 327 325 324 324 326 324 320 320 319 320 324 323 323 323 322 323 323 322 321 320 320 320 319 319 318 318 318 318 318 318
307 307 308 308 307 307 308 308 308 309 310 310 310 311 312 312 312 310 310 310 310 308 308 309 310 310 310 311 313 311 312 320 323 321 322 322 321 321 321 322 322 321 322 322 323 324 325 324 323 323 323 324 326 326 326 327 327 328 330 329 326 325 326 324 322 320 318 320 321 321 325 326 324 326 325 323 323 322 322 322 320 320 319 319 319 318 318 318
308 308 308 308 308 307 307 308 309 309 310 310 310 311 311 312 311 309 310 310 310 308 307 308 308 309 310 311 312 311 311 316 322 321 321 322 322 322 322 322 323 323 322 322 322 323 324 323 322 323 324 325 327 330 329 329 329 329 331 331 329 328 326 323 322 321 321 324 321 322 331 332 327 327 327 325 325 323 323 322 322 321 320 319 319 319 319 319
307 308 308 307 308 307 307 310 310 308 310 311 310 311 311 311 310 309 309 310 309 309 308 308 308 309 310 311 311 310 311 315 321 322 321 322 322 322 323 323 324 324 322 322 323 324 324 323 322 322 324 326 329 331 329 328 329 329 329 330 330 330 327 325 325 325 328 329 321 320 330 332 327 325 326 325 326 325 324 324 323 322 321 319 319 319 319 319
307 307 307 307 308 308 308 310 309 309 310 310 310 310 311 311 310 309 309 309 308 310 310 308 309 311 311 312 311 310 313 317 320 321 320 321 321 321 323 324 325 325 323 323 326 326 324 323 323 323 324 327 330 331 329 327 328 328 329 329 327 328 329 329 328 328 330 328 321 318 324 327 326 323 323 324 324 325 325 325 324 322 321 320 318 319 318 319
306 307 307 306 307 308 308 309 308 309 310 310 310 310 310 310 310 308 308 309 309 310 310 308 310 312 312 313 312 310 312 317 321 320 319 320 320 320 322 324 325 325 323 324 328 327 324 324 324 324 326 327 329 330 329 327 327 328 329 328 327 328 330 331 329 329 329 328 327 323 322 326 327 324 324 324 323 323 325 325 325 323 321 320 319 318 319 319
306 307 306 306 307 307 308 308 308 309 309 309 310 310 310 310 309 308 308 309 310 309 309 310 311 312 312 312 313 311 311 314 317 318 318 319 320 320 321 322 323 325 323 323 327 326 324 324 324 324 326 326 327 329 329 328 326 326 327 328 329 329 328 329 329 329 328 327 328 327 324 327 329 327 325 325 324 323 323 324 324 322 321 321 320 320 319 319
306 306 306 306 307 307 307 308 308 309 308 309 310 309 310 309 308 309 307 308 311 310 310 312 311 312 312 311 312 312 312 312 314 316 317 318 318 319 319 319 320 323 324 324 324 322 322 324 324 325 326 325 327 327 326 326 324 322 324 326 327 325 324 326 325 326 328 328 327 326 325 326 330 329 325 325 325 324 323 322 322 322 322 322 321 321 321 320
306 306 306 306 306 307 307 308 308 308 308 308 309 309 309 308 307 308 308 309 313 314 312 312 311 312 312 311 312 312 311 312 314 316 317 318 318 318 319 320 319 320 323 323 321 319 321 324 324 323 323 324 326 323 322 323 323 323 324 324 324 323 324 326 323 323 329 328 324 324 325 326 329 329 325 324 325 324 323 322 323 323 322 322 322 322 322 321
306 305 306 306 307 306 307 308 308 308 308 308 309 308 308 309 308 309 308 308 311 314 313 312 312 313 312 312 312 311 310 312 314 315 316 318 319 319 320 322 321 321 322 323 321 321 322 323 322 321 320 323 325 322 322 325 325 326 326 324 326 326 326 328 325 324 328 326 319 320 325 326 326 325 323 324 323 322 321 320 322 322 321 321 322 322 322 321
306 305 305 306 307 306 306 307 308 308 308 308 308 307 307 309 308 308 309 308 310 312 313 313 313 312 311 312 312 311 311 311 313 314 315 318 319 319 320 320 320 320 321 322 322 322 323 322 321 321 319 321 322 322 324 326 326 327 327 326 327 327 327 330 327 326 329 325 317 319 326 326 324 323 322 323 322 320 319 319 320 320 320 320 319 321 321 320
306 306 305 305 306 306 306 307 307 307 307 308 307 306 307 308 308 308 309 309 311 312 312 313 313 312 312 312 312 312 312 311 311 313 315 317 319 320 319 319 318 317 317 319 321 322 325 324 322 321 321 321 321 321 323 324 324 326 325 325 326 327 328 329 328 328 329 323 315 319 328 328 326 323 319 318 319 318 318 319 320 319 319 318 318 318 319 319
305 305 305 305 305 305 306 306 306 307 307 307 306 306 307 307 308 308 308 309 311 311 312 313 314 314 313 312 313 313 313 313 311 312 314 316 318 319 318 318 318 317 316 319 321 322 325 324 321 319 318 320 322 321 320 322 324 324 324 325 326 327 328 327 326 326 326 324 319 320 326 325 322 321 317 317 318 316 316 317 317 318 317 317 317 317 317 317
305 305 305 305 304 304 306 306 306 307 307 306 306 306 306 306 307 308 308 309 311 311 312 313 314 315 314 314 314 313 314 314 312 312 314 314 315 317 317 317 318 317 317 319 321 322 325 322 318 316 316 318 321 322 320 322 324 324 325 326 325 324 326 327 325 322 322 326 324 321 322 320 317 319 318 319 321 319 317 316 315 316 316 316 316 316 316 316
305 304 303 304 304 304 305 306 306 307 306 306 305 305 305 305 306 308 308 308 311 312 312 314 314 314 314 314 314 314 314 314 312 313 314 313 314 316 315 316 317 316 316 320 322 322 323 320 315 315 317 315 314 319 321 319 319 324 326 324 323 324 325 325 326 324 322 326 326 322 321 321 321 324 323 320 320 320 320 318 315 315 315 315 315 315 316 315
304 303 303 303 303 303 304 305 306 305 305 305 305 305 305 304 306 308 308 308 310 311 311 313 314 315 315 315 315 314 314 314 313 314 314 313 315 316 315 316 317 316 316 319 322 321 321 319 314 314 316 314 312 318 322 316 315 321 324 321 323 326 325 324 324 327 325 325 327 326 323 322 322 322 322 321 321 321 321 319 317 316 315 314 314 315 316 316
303 303 303 303 303 303 303 304 305 304 305 305 305 305 305 305 306 308 308 309 310 310 311 312 312 313 315 315 315 314 314 314 313 314 316 314 315 316 315 316 317 316 317 318 321 323 322 320 316 313 314 315 315 319 321 318 316 319 322 321 323 325 325 324 324 328 328 324 326 327 326 327 325 320 321 322 322 322 322 321 320 317 314 314 314 316 316 315
302 303 303 302 302 303 302 303 303 303 304 305 305 305 306 305 306 307 308 308 309 310 311 311 309 310 311 313 315 314 313 314 314 314 316 314 314 316 315 316 317 317 318 318 320 321 321 321 318 314 313 314 317 319 320 320 318 319 322 322 323 323 324 324 323 325 327 326 326 325 326 329 323 318 321 320 320 322 321 324 324 317 314 315 316 316 316 315
302 302 303 302 302 303 303 303 303 302 304 304 304 305 305 305 306 307 307 307 308 308 309 310 308 308 310 312 314 315 314 315 314 315 316 314 315 317 315 315 316 316 318 319 319 319 319 320 318 314 313 315 318 318 317 318 318 319 321 322 322 322 322 325 325 324 324 326 327 323 326 330 321 316 320 318 318 321 319 320 322 317 315 316 317 317 316 316
301 302 302 301 301 302 303 303 303 303 303 304 304 304 304 305 305 306 306 307 307 307 307 309 309 309 309 310 311 312 313 315 315 315 316 315 315 317 316 315 316 317 318 319 318 316 315 316 316 314 314 315 316 314 313 317 319 319 319 321 322 321 321 324 326 325 324 325 324 320 324 329 321 316 318 317 315 315 313 315 316 315 315 315 314 313 313 313
300 301 301 301 301 302 302 302 302 302 303 303 303 303 304 304 305 305 306 306 307 306 306 307 309 310 309 309 309 308 310 314 315 315 316 316 315 316 315 315 316 317 318 318 317 315 314 314 315 314 314 314 315 314 313 315 317 318 319 320 322 321 321 323 324 324 325 324 324 322 323 325 320 317 316 314 312 311 310 312 313 313 314 313 311 311 311 311
300 301 301 301 301 302 302 302 302 302 302 303 303 303 303 304 304 304 305 306 306 307 306 307 308 309 309 308 308 308 309 312 315 316 316 317 316 315 314 315 316 318 318 317 316 316 316 315 315 315 315 315 316 316 315 315 316 318 320 320 321 321 321 323 322 321 323 324 324 324 324 324 320 318 315 313 313 313 310 311 312 313 314 313 311 310 311 310
300 300 301 301 301 301 301 301 301 302 302 302 303 303 303 303 304 304 304 305 305 306 307 307 307 309 310 308 308 308 308 310 312 314 315 317 317 316 315 315 317 318 317 316 315 316 317 316 316 317 317 317 318 318 318 317 316 317 319 319 320 321 321 322 322 320 321 323 323 323 323 322 317 317 316 314 315 314 311 310 311 312 314 314 313 310 310 310
300 300 300 300 300 301 301 301 301 301 302 302 302 302 302 303 303 303 304 304 304 305 306 307 307 308 310 310 309 309 308 308 309 310 312 314 315 315 315 315 316 317 317 316 315 314 314 313 315 317 317 318 319 318 319 318 317 317 319 319 319 321 321 322 322 321 321 322 322 321 321 321 319 318 318 316 315 315 314 311 310 310 312 314 313 311 310 310
300 300 300 300 300 300 300 301 301 301 301 301 302 302 302 302 303 303 303 303 303 304 305 305 307 307 309 310 311 311 310 308 308 309 309 310 311 312 314 315 316 317 316 315 314 313 313 314 315 315 316 317 318 318 318 317 317 317 318 318 319 320 322 322 322 322 321 322 322 320 319 320 319 318 319 319 317 317 316 312 311 311 311 311 312 311 310 311
299 300 300 300 300 300 300 300 300 301 301 301 301 302 302 302 302 303 303 303 302 303 304 304 306 308 308 310 311 311 311 310 310 310 309 309 310 312 314 316 316 316 315 314 314 314 315 316 315 314 315 317 317 318 317 317 317 317 317 318 318 319 320 321 321 321 321 322 321 320 320 320 318 317 320 320 317 315 314 312 312 312 311 310 311 311 311 311
299 299 300 300 300 300 300 300 300 301 301 301 301 301 301 301 302 302 303 303 302 302 303 303 305 307 308 308 309 311 311 310 310 311 310 310 311 311 314 316 315 315 315 315 314 314 316 316 315 313 315 316 317 318 318 317 317 317 317 317 318 319 319 320 319 319 320 321 320 319 320 320 318 319 320 318 315 313 312 311 310 311 311 311 311 311 311 311
299 299 299 299 300 300 300 300 300 300 301 301 301 301 301 301 301 301 302 303 302 302 302 302 302 305 307 308 308 309 310 310 311 312 310 309 311 311 312 315 315 314 315 315 314 314 316 317 314 313 316 317 316 317 317 318 318 318 317 317 317 318 319 319 319 319 319 320 319 319 320 320 319 319 318 316 314 312 311 311 311 311 312 312 312 311 311 311
299 299 300 299 300 300 300 300 300 300 300 301 301 301 301 301 301 301 301 303 303 303 302 302 302 303 305 307 308 308 309 310 311 312 310 310 311 311 312 314 314 314 314 315 314 314 316 317 315 314 317 318 316 315 315 316 317 317 317 317 317 318 318 319 319 318 319 319 319 320 320 319 319 319 318 316 315 314 312 313 313 314 314 313 313 312 311 311
298 299 300 300 300 300 300 300 300 300 300 300 300 301 301 301 302 302 301 302 303 303 302 303 303 303 303 305 306 306 308 309 310 310 310 310 310 310 312 313 313 314 314 314 314 314 315 315 314 315 318 319 317 315 314 315 316 317 317 316 317 317 317 318 318 318 318 318 318 319 318 318 320 320 318 319 319 317 315 314 315 316 315 314 314 313 313 312
Wind_Speed
35 35 36 36 35 34 35 36 34 32 30 30 29 29 30 30 32 30 29 30 30 31 31 28 29 32 34 33 30 29 26 28 32 32 37 37 32 32 32 38 36 22 19 22 19 16 14 13 12 10 10 10 10 11 10 10 8 4 2 4 5 5 5 5 6 4 5 7 5 9 14 9 9 8 6 7 6 8 10 10 10 8 8 6 6 7 8 9
35 35 35 35 34 34 34 35 35 33 31 30 29 29 28 30 33 32 30 30 30 31 31 30 28 30 32 32 31 29 25 27 31 35 39 36 33 35 33 36 39 27 21 24 22 18 17 15 15 13 12 11 10 12 10 9 9 6 3 3 6 5 7 9 6 2 6 9 10 9 11 8 12 14 10 7 7 9 9 10 12 10 9 9 9 10 9 8
35 34 34 34 34 34 33 35 36 34 32 30 29 30 28 29 32 32 31 30 29 30 31 30 28 29 30 30 30 28 25 25 31 39 39 36 36 37 36 37 40 33 24 25 24 19 18 16 15 15 14 13 11 11 10 9 9 9 7 3 7 8 8 8 2 8 8 9 11 8 7 6 12 16 12 8 9 11 8 10 14 13 13 13 14 15 12 11
35 34 35 34 34 34 34 34 36 35 33 30 29 30 29 29 30 32 33 32 30 29 30 30 28 29 29 29 29 26 23 21 30 43 39 37 40 38 40 39 39 36 28 27 25 20 19 16 15 16 14 12 13 12 10 11 10 9 9 5 7 7 6 4 5 8 6 7 8 9 5 5 11 13 12 10 8 8 11 15 17 17 18 18 19 18 16 13
35 35 35 35 34 34 34 34 35 35 33 30 29 29 29 28 29 31 32 32 32 31 30 31 29 28 28 28 28 25 21 11 18 35 39 40 41 39 41 41 38 36 31 29 26 20 19 18 16 17 15 10 12 11 10 15 13 7 10 12 14 10 5 2 6 7 4 5 8 9 5 6 11 10 12 12 7 5 8 14 17 19 21 19 18 18 17 15
36 35 35 35 34 34 34 34 35 35 33 30 28 29 29 29 29 29 31 31 31 32 30 32 31 29 29 29 27 26 25 11 5 10 32 42 42 40 40 42 41 37 33 31 29 22 19 21 20 18 14 10 11 10 11 16 15 6 8 13 18 17 7 4 5 4 3 4 6 6 5 8 10 8 12 14 9 7 8 9 12 17 21 19 15 16 16 16
36 36 36 35 35 34 34 35 36 35 32 29 27 28 28 29 30 29 31 29 30 32 30 32 33 31 31 28 26 28 33 29 5 10 11 36 42 41 39 39 39 39 36 33 33 29 21 23 23 19 13 9 10 12 13 15 16 10 6 10 15 18 12 1 3 3 2 2 2 4 4 8 9 6 11 17 14 7 4 7 9 9 18 19 15 14 14 14
35 36 37 36 35 34 34 34 36 35 33 30 28 28 27 29 30 30 33 30 30 32 30 30 33 35 34 30 29 31 37 43 29 2 4 24 40 41 41 38 36 39 39 34 33 30 21 20 23 20 12 9 12 13 15 13 14 12 8 11 10 11 10 2 2 4 3 2 2 1 3 7 9 5 7 15 15 11 8 8 7 8 15 18 16 15 15 15
35 36 37 37 36 34 34 32 35 36 33 30 28 28 28 27 27 29 32 32 30 30 31 29 33 38 33 33 33 27 38 46 40 22 6 15 34 41 42 40 38 39 40 37 34 29 21 19 21 20 12 12 14 13 17 13 8 11 13 13 8 5 7 3 4 6 6 5 4 3 5 8 9 4 5 12 15 12 12 13 11 11 16 17 17 15 16 17
35 36 37 38 36 35 34 32 34 36 34 30 29 28 27 27 26 27 30 33 31 30 32 28 36 42 33 36 31 19 37 43 39 37 20 14 28 39 43 42 40 39 39 39 36 29 23 18 19 21 14 12 14 13 17 13 4 7 12 17 14 10 10 7 7 9 8 7 6 5 7 10 9 5 5 12 17 15 14 15 13 15 19 19 18 17 15 17
35 35 36 37 36 36 35 32 33 35 33 31 29 28 27 27 26 27 29 31 32 32 32 27 38 48 38 38 32 19 28 30 32 40 28 17 28 39 43 45 42 39 38 37 37 31 25 19 17 18 12 7 10 11 17 14 8 7 8 14 16 10 9 10 9 11 9 5 10 7 8 9 6 6 9 11 15 19 18 16 15 17 20 21 20 19 17 16
35 35 35 36 36 37 36 33 33 34 32 29 29 28 27 25 24 26 28 31 33 33 33 29 35 46 41 39 41 32 23 23 29 37 33 22 28 40 42 45 44 41 39 37 37 31 25 22 17 15 11 6 6 8 13 14 12 10 6 7 10 7 8 11 11 11 10 5 11 9 6 8 6 8 14 11 11 17 18 16 17 18 20 21 21 21 19 18
35 34 35 36 35 37 37 34 33 32 30 29 28 27 26 25 24 25 25 29 34 34 35 31 30 40 39 31 38 39 24 23 30 34 35 25 29 40 41 44 44 42 40 36 38 32 26 23 16 14 12 9 5 3 5 12 12 8 6 4 5 5 7 12 13 12 10 7 12 10 2 7 9 14 20 16 14 17 16 17 19 19 19 21 22 23 22 21
35 34 34 35 34 35 36 35 33 31 29 28 28 27 26 24 24 25 22 27 33 34 35 31 29 37 36 25 31 39 29 24 30 37 36 27 30 37 37 41 41 40 38 35 36 33 28 22 13 9 9 11 5 3 1 9 9 6 5 5 4 4 5 11 15 13 10 10 16 10 3 8 7 14 25 25 23 22 19 18 20 20 20 21 22 24 24 24
35 35 35 35 34 34 35 35 33 30 29 28 28 27 26 24 24 24 22 25 27 31 35 29 28 33 27 20 26 35 34 28 31 40 38 29 29 34 34 36 36 36 37 35 35 32 29 22 12 4 3 8 6 3 3 4 5 6 5 5 5 5 4 8 15 17 11 9 16 10 4 8 7 13 24 29 29 26 23 21 21 21 20 22 23 24 25 25
35 35 35 35 35 34 34 34 31 29 28 27 26 25 24 23 23 24 23 25 23 26 32 26 31 36 17 10 19 29 35 34 34 39 38 31 30 33 34 34 33 33 33 33 31 30 27 19 10 4 5 3 4 4 4 3 4 6 6 5 5 6 5 5 12 21 16 8 12 12 4 5 5 9 15 23 26 24 21 19 21 22 21 22 23 24 25 24
34 34 35 35 34 34 34 33 31 29 28 26 25 24 23 20 22 25 21 22 22 24 29 26 32 32 13 8 17 27 37 37 37 38 38 36 32 32 35 34 31 30 29 28 26 24 21 14 8 4 3 2 2 4 6 8 8 6 6 4 5 8 6 4 8 16 17 9 8 12 8 7 4 1 7 16 20 19 18 19 20 21 22 23 24 24 24 24
34 34 35 35 34 35 35 34 32 29 28 27 26 25 22 19 21 24 21 20 19 18 22 27 27 13 5 10 11 22 39 37 37 39 38 39 34 31 35 34 31 28 24 19 17 17 13 9 7 3 2 3 5 8 10 10 9 7 7 5 5 8 9 7 6 11 16 11 8 9 10 13 9 3 7 13 16 17 17 17 18 19 22 24 24 25 25 24
34 35 35 35 35 36 36 35 33 30 30 28 25 23 20 19 19 22 25 24 19 11 7 16 21 10 5 6 9 14 38 38 36 37 38 40 35 30 30 28 32 32 20 10 11 16 12 7 5 4 6 9 9 11 10 7 9 10 9 8 6 6 8 7 4 10 15 10 9 9 10 11 11 10 10 14 18 18 17 17 17 18 19 22 24 24 24 25
34 35 35 35 34 35 36 35 33 32 32 29 27 24 20 19 13 12 23 27 24 17 5 4 13 18 23 22 16 9 32 37 36 38 39 41 39 32 28 27 29 29 19 10 10 15 15 7 5 10 11 12 11 10 11 8 9 12 10 9 9 5 7 7 4 8 12 8 7 10 10 10 11 11 12 16 18 18 18 18 19 19 19 20 23 24 25 27
35 34 34 34 33 35 35 34 34 33 33 32 32 30 25 24 13 7 18 19 24 27 16 10 9 15 31 34 22 10 24 32 35 40 38 40 42 30 25 28 20 14 18 17 12 12 14 8 12 16 12 11 11 11 14 14 11 12 10 9 10 7 4 4 7 8 8 5 6 10 10 11 11 10 12 15 14 15 19 19 19 22 20 19 22 24 26 26
34 34 35 34 33 35 35 35 34 33 33 32 35 32 27 32 23 13 17 9 14 27 23 20 17 15 23 32 29 17 10 22 30 36 38 40 41 29 22 23 14 9 16 16 11 10 10 12 19 19 13 11 11 13 17 17 12 9 9 8 8 8 2 4 7 7 6 3 4 7 9 10 11 11 11 13 13 16 22 23 22 24 23 23 24 25 26 26
34 34 35 35 34 34 35 35 34 33 33 32 37 32 23 30 25 12 14 7 6 22 27 25 23 21 22 25 25 22 18 20 31 32 42 43 38 32 26 19 12 13 15 13 11 11 10 14 21 20 16 14 12 15 17 15 10 5 6 7 6 9 6 3 5 6 5 3 3 3 5 6 6 8 8 12 18 19 20 23 25 25 26 28 29 29 29 28
32 33 34 34 34 35 34 35 34 34 35 32 34 32 21 25 24 12 11 6 1 13 28 32 26 25 28 25 22 20 23 17 31 34 45 46 36 29 24 19 15 13 15 18 18 17 11 8 16 18 16 17 13 14 14 10 7 5 5 6 4 8 7 4 5 5 4 3 4 1 4 6 6 8 8 11 17 18 18 21 22 25 28 29 30 31 31 31
31 32 33 34 33 35 36 35 36 35 33 30 29 30 23 20 22 15 8 2 1 6 17 26 23 25 32 27 22 18 23 16 27 41 46 47 40 25 16 20 16 11 18 22 19 15 9 12 22 18 15 17 13 12 13 9 6 5 5 5 2 5 5 8 8 5 2 3 5 4 2 5 5 10 11 10 12 14 18 20 21 25 28 30 30 31 32 32
30 31 32 35 35 37 37 33 36 34 29 27 27 29 25 19 21 17 8 0 3 5 9 16 17 16 24 26 23 16 16 14 24 44 45 42 40 28 15 14 10 10 20 20 12 8 6 17 23 18 18 19 14 11 12 10 6 5 6 6 5 6 4 8 8 5 2 3 3 5 4 4 4 6 9 8 9 12 15 16 20 26 29 31 32 32 32 32
28 30 31 34 36 38 35 29 33 33 27 26 26 28 25 19 20 17 8 3 4 7 11 14 15 10 13 16 17 10 7 4 21 39 43 35 31 27 15 9 7 11 16 12 8 6 10 19 20 20 20 16 13 13 13 13 8 5 7 10 10 7 3 6 6 4 3 1 1 3 3 3 6 6 7 7 8 9 10 10 16 25 29 30 31 33 34 34
27 30 32 34 35 36 30 24 30 30 24 24 25 26 22 20 21 15 5 4 2 8 10 12 13 13 12 7 12 16 14 7 10 25 40 35 26 20 9 8 9 11 17 13 9 9 15 20 22 25 21 14 14 14 14 16 8 4 6 12 11 5 1 3 5 3 1 4 2 5 3 2 6 4 5 8 9 10 10 9 10 18 27 30 31 32 34 37
28 30 32 34 34 33 26 22 29 27 21 24 25 23 23 25 21 10 2 4 2 4 8 14 13 13 14 7 11 18 18 13 4 13 35 32 23 15 5 6 6 7 18 17 10 9 13 21 26 23 16 13 12 9 9 14 7 3 4 8 5 3 3 3 2 2 2 1 5 6 5 3 5 4 5 6 8 10 11 10 10 17 25 29 32 34 35 36
29 30 31 33 34 33 26 23 27 24 21 24 24 24 27 25 14 5 4 3 2 3 9 14 14 16 18 8 6 11 11 10 8 9 25 21 18 16 8 7 2 0 11 12 5 3 8 21 22 14 12 11 10 7 3 7 7 3 8 10 7 4 4 4 2 4 2 3 6 8 9 5 3 5 6 6 7 9 9 9 10 15 21 26 31 34 35 35
30 31 31 32 34 33 26 25 27 24 23 24 28 31 27 14 4 4 7 0 3 5 9 9 11 17 19 9 3 5 8 6 6 5 11 11 13 11 7 6 2 2 4 6 2 1 7 17 12 9 16 13 12 6 1 3 6 5 6 7 5 4 4 3 3 3 2 5 3 6 8 6 5 6 5 6 7 8 9 9 8 9 15 22 29 33 34 34
30 31 31 32 34 31 26 28 30 27 25 28 33 33 20 5 2 5 3 3 2 3 6 9 11 13 16 13 6 5 5 3 3 4 3 7 10 8 8 8 5 2 4 6 4 1 6 9 7 9 14 15 13 7 3 4 6 4 6 7 6 3 2 2 2 1 5 4 1 1 3 5 8 6 7 9 8 7 7 8 8 9 12 14 17 26 32 32
31 31 31 32 34 30 24 25 28 28 28 32 33 24 9 3 6 6 4 2 0 2 5 10 13 15 18 15 9 7 6 3 4 4 5 7 8 9 12 11 8 4 2 7 8 6 3 2 5 10 8 14 17 10 7 7 8 8 8 8 6 5 4 5 4 3 4 3 2 2 4 3 5 4 9 13 15 17 14 13 14 14 14 10 6 12 21 24
29 29 30 31 32 28 24 25 27 28 31 33 25 12 4 5 6 8 7 2 1 1 3 7 13 16 17 15 11 12 8 3 3 4 5 6 7 8 10 10 9 4 2 5 5 9 9 1 8 12 7 16 18 13 13 12 11 11 8 7 6 5 5 6 5 4 3 0 1 3 3 3 3 2 6 11 16 19 17 19 20 15 14 11 6 6 10 13
27 29 30 29 28 24 23 26 27 29 34 27 13 5 6 5 4 7 7 3 2 3 1 5 13 13 12 12 11 15 13 5 5 5 4 5 6 7 8 9 13 7 4 5 3 6 10 2 6 6 4 16 18 12 13 11 8 7 5 6 6 4 4 3 2 4 3 2 1 4 3 4 3 6 9 8 10 11 10 14 17 16 15 13 12 12 10 9
27 28 27 25 24 21 23 26 27 33 36 21 6 5 7 5 4 4 5 5 4 4 3 7 11 9 8 8 7 13 13 5 7 5 3 4 4 6 8 7 12 12 7 6 1 3 6 1 3 2 1 10 13 11 14 12 8 5 5 7 3 2 4 4 1 1 3 1 3 4 5 4 2 9 11 11 11 9 9 10 12 16 16 12 15 16 15 14
28 26 24 22 21 21 24 24 24 34 33 15 5 7 6 5 3 0 4 8 5 4 4 5 7 7 7 6 6 12 11 6 7 5 0 2 3 6 8 5 10 14 9 5 1 2 3 2 2 2 2 3 5 11 11 5 5 6 7 8 4 4 3 3 1 1 2 4 3 5 8 4 3 5 6 11 13 11 9 8 10 13 14 14 16 17 17 16
29 27 23 22 21 23 25 20 20 30 23 7 7 8 5 5 2 2 2 5 5 5 2 3 4 5 7 7 7 12 13 8 8 6 2 2 2 6 10 7 10 16 14 9 2 1 3 3 2 2 1 1 3 7 6 3 2 4 7 8 6 1 2 4 3 3 4 4 4 5 8 5 6 6 2 5 11 10 8 8 8 10 12 15 16 15 15 15
29 24 18 20 23 24 24 19 19 23 13 4 8 7 3 4 4 2 4 3 1 3 3 2 2 1 3 6 8 11 13 12 9 7 5 3 1 6 11 7 8 16 18 12 4 1 2 2 2 2 2 1 0 4 7 3 2 2 6 6 4 3 4 6 5 2 3 4 4 3 4 4 7 7 5 7 9 8 8 9 8 9 13 14 14 15 15 15
27 15 11 21 26 25 25 19 15 12 5 5 6 3 3 4 4 4 6 7 4 1 1 1 2 0 2 3 9 11 10 11 11 8 6 6 3 4 10 8 7 14 17 10 4 1 2 1 4 1 3 2 4 5 10 12 7 5 8 8 6 3 2 3 4 2 2 3 3 4 4 5 4 5 9 11 8 4 4 6 6 8 13 11 9 13 15 14
21 8 9 22 25 25 27 17 8 4 1 2 2 3 4 3 3 4 4 5 4 4 4 2 3 2 1 1 6 8 8 8 10 8 6 8 5 2 10 13 10 13 13 7 4 3 1 1 4 4 2 5 5 3 5 10 12 10 9 10 10 7 4 4 6 4 2 2 3 3 5 6 4 1 3 5 5 3 4 5 5 9 13 12 10 10 11 13
14 4 12 24 24 25 22 9 3 3 1 2 4 3 2 1 1 2 2 3 3 3 4 3 3 3 2 1 0 2 4 5 9 8 5 10 11 6 12 19 16 16 13 6 5 5 3 2 4 4 4 4 2 2 2 2 5 7 6 7 9 7 7 8 8 6 6 6 3 1 4 6 4 3 3 5 7 5 5 7 9 11 12 10 9 9 8 9
10 7 16 24 24 23 15 4 2 2 0 3 6 3 1 1 1 1 1 1 2 2 1 1 1 1 2 2 1 2 1 2 8 9 6 9 12 10 19 26 20 15 11 5 6 5 3 2 4 3 2 2 4 5 4 3 0 4 4 4 7 9 9 7 5 4 6 8 6 3 5 6 4 4 2 4 7 6 4 6 8 9 9 8 8 8 8 7
15 14 16 20 22 19 9 2 4 3 2 3 5 4 3 2 1 1 1 2 2 1 2 1 1 0 1 3 3 2 1 1 4 9 7 7 7 10 24 32 24 14 11 9 8 7 4 2 4 5 2 1 3 3 3 3 2 5 6 7 10 13 12 5 2 3 4 8 10 7 7 7 3 4 2 3 5 4 4 5 6 7 8 7 7 8 8 8
16 11 10 17 21 15 5 1 2 3 4 4 4 4 4 3 3 4 4 3 3 2 2 2 3 2 2 4 4 3 2 2 1 3 4 3 2 5 19 31 26 16 15 15 13 9 4 3 5 7 7 7 5 6 6 5 5 5 8 13 14 16 18 11 6 5 5 7 10 9 9 4 1 2 1 2 2 3 4 5 7 8 8 8 9 9 10 10
10 4 5 10 13 10 5 4 2 1 5 6 3 4 5 4 4 6 5 4 4 3 1 1 3 2 3 5 3 2 3 3 0 2 3 1 2 2 12 27 25 20 20 21 21 12 3 3 5 4 5 6 4 3 4 7 8 9 11 16 15 14 14 10 5 6 9 7 6 9 11 7 4 3 2 2 3 5 5 6 7 9 8 8 9 9 10 11
7 4 6 6 5 4 4 5 3 2 4 7 4 4 7 6 4 5 7 4 4 3 2 2 2 2 2 5 3 2 4 4 3 2 2 1 3 6 7 20 21 21 21 20 20 12 2 3 7 4 5 3 3 3 10 11 13 16 16 17 16 13 12 10 10 12 11 7 7 12 15 14 11 6 4 5 7 6 5 8 9 9 8 9 9 9 11 12
5 6 12 12 6 3 5 7 8 6 5 7 5 5 8 9 6 4 6 5 5 4 3 2 3 4 3 2 2 3 5 4 4 3 1 2 2 5 3 10 13 18 19 13 14 10 2 3 6 4 5 6 7 1 9 12 12 13 14 16 17 16 15 14 16 17 13 9 13 17 16 16 13 7 7 8 7 8 9 11 11 10 9 9 10 11 13 14
6 7 12 15 7 5 9 10 9 8 6 5 5 5 7 9 9 7 5 3 3 5 5 4 5 6 5 4 3 2 4 5 3 3 2 2 2 2 2 3 7 14 15 9 8 7 3 4 7 6 5 7 7 6 1 8 9 9 12 15 15 16 18 18 17 17 14 12 18 20 16 17 12 8 9 9 9 13 13 12 12 12 10 8 9 12 16 18
9 6 10 13 6 5 10 8 6 7 6 5 5 5 6 7 8 8 6 6 4 4 7 9 9 7 6 6 6 6 6 6 4 3 5 3 1 1 2 1 3 8 9 6 6 6 6 6 8 9 5 6 7 7 7 4 6 11 15 15 15 16 17 18 18 17 14 17 24 21 15 16 10 8 12 15 13 14 12 10 11 11 10 8 9 12 16 21
11 8 13 13 5 5 9 6 5 6 5 5 6 6 7 8 9 7 6 10 10 5 8 12 11 7 5 6 9 9 8 8 6 5 9 8 4 3 4 3 2 6 7 6 6 6 6 5 6 7 5 7 10 10 8 6 6 8 13 16 18 18 18 21 22 19 17 20 22 17 15 14 7 6 9 12 11 9 9 14 15 15 15 16 16 15 16 19
13 10 15 13 6 6 7 5 6 6 5 6 7 7 8 9 8 7 5 9 14 13 11 11 8 5 4 7 12 14 11 11 10 9 12 13 8 4 5 6 2 5 6 6 6 6 6 5 5 6 7 8 9 12 11 7 5 7 13 19 24 25 23 22 19 17 18 18 15 14 15 9 5 7 9 8 8 9 14 21 25 27 28 25 23 20 16 17
Wind_Direction
242 242 241 242 240 238 238 239 240 236 235 237 239 240 238 239 240 240 240 237 234 234 233 232 228 228 229 230 233 233 239 239 229 225 225 228 227 224 221 213 208 204 203 205 202 200 202 203 201 199 200 209 213 208 218 225 222 234 231 240 243 242 237 239 235 203 127 137 155 180 176 154 153 176 172 150 147 150 154 153 150 162 178 167 154 176 190 195
240 241 240 241 240 237 237 238 238 236 233 235 238 240 238 238 240 240 240 237 234 234 232 231 227 227 228 228 233 234 240 243 233 228 228 230 226 221 218 212 207 202 200 200 198 198 197 201 199 195 203 213 211 200 204 205 204 216 226 235 239 244 249 258 242 145 94 140 150 171 188 169 162 172 168 169 178 164 156 167 164 153 162 167 180 203 211 211
240 240 239 239 240 238 236 236 236 235 233 233 237 241 239 237 240 239 239 237 233 232 230 230 227 226 227 225 228 231 238 239 234 232 228 228 226 218 214 211 208 203 202 202 200 203 203 203 203 196 204 219 209 187 188 189 192 215 227 241 238 243 267 288 24 76 75 122 140 150 189 181 155 163 169 183 184 180 187 179 167 167 173 174 191 210 214 217
239 239 238 237 239 238 235 235 235 234 233 233 235 240 240 238 238 237 238 238 234 233 230 227 225 225 224 223 224 225 228 232 238 235 225 224 227 220 213 212 210 206 206 204 198 203 210 209 210 204 205 223 219 197 188 186 181 199 214 236 243 254 286 290 74 86 92 109 131 137 161 174 152 161 175 186 186 187 205 198 187 185 185 183 195 211 215 219
238 238 236 236 237 237 235 234 233 232 232 231 233 238 241 240 235 233 236 238 236 235 233 227 224 224 220 217 220 217 210 221 256 242 226 221 225 222 215 213 210 205 206 203 194 197 209 209 211 213 209 222 227 215 207 197 189 200 218 232 247 273 333 42 83 90 125 114 120 135 170 179 159 171 180 191 204 166 189 203 201 195 192 195 201 212 216 217
237 236 235 235 235 235 234 233 230 229 229 229 233 236 240 242 236 232 234 237 236 236 234 227 222 220 215 210 213 205 198 202 353 262 228 220 220 219 214 214 210 205 205 202 196 196 205 206 207 212 208 217 227 222 222 204 192 211 232 228 243 261 288 41 83 104 139 143 139 152 179 164 163 190 192 205 210 141 135 168 185 193 196 203 207 209 215 215
237 236 234 233 234 233 233 232 229 226 227 227 231 235 238 242 239 233 232 235 234 235 234 225 220 218 212 206 206 201 202 214 226 26 239 221 219 216 211 213 211 209 207 200 197 195 200 207 204 205 204 215 225 224 227 211 198 206 238 234 238 246 246 81 101 154 130 164 175 141 142 167 186 209 197 210 215 183 154 150 146 170 187 195 204 210 216 218
235 235 234 233 232 232 232 231 228 225 225 226 230 233 237 242 241 233 230 233 232 234 232 220 216 216 209 200 196 198 210 218 221 297 344 222 218 213 209 209 208 208 206 199 194 189 196 214 207 201 202 214 218 222 227 219 211 211 223 241 242 239 233 158 134 199 183 220 284 170 189 211 207 212 195 206 215 216 234 212 166 151 173 189 205 215 218 218
234 234 233 232 231 231 230 228 226 225 224 224 227 231 234 239 240 234 230 230 231 234 232 220 215 215 208 201 193 198 221 222 217 219 235 224 219 214 208 205 206 207 206 202 195 186 194 218 213 204 208 218 218 221 226 222 222 221 215 230 243 224 222 198 187 208 204 222 260 230 238 236 214 220 229 218 216 213 225 227 208 177 177 193 206 216 221 220
234 233 231 231 229 229 227 224 223 223 222 222 225 227 231 234 235 235 232 229 231 233 231 224 218 216 205 198 192 205 232 225 216 219 228 229 218 214 207 204 205 203 204 202 197 190 189 211 223 220 223 228 227 227 229 225 197 218 219 227 235 220 211 206 207 212 200 213 228 222 245 237 210 208 238 228 219 208 205 214 210 189 185 194 203 212 218 219
232 231 230 228 227 226 224 221 220 220 221 221 223 225 227 230 232 235 233 228 230 231 230 225 215 213 203 194 193 210 232 222 212 216 222 222 211 211 206 204 205 201 199 194 193 192 187 208 227 223 226 240 243 238 237 231 206 226 239 230 227 219 212 201 214 216 186 205 217 215 267 245 186 199 229 230 217 203 195 198 203 195 190 193 198 207 213 215
230 230 228 226 225 225 222 220 219 219 220 220 222 224 225 228 228 232 232 226 229 230 229 224 208 203 196 191 198 211 222 213 209 210 213 216 206 207 206 204 206 204 201 190 188 188 187 205 218 208 207 215 237 246 235 217 204 232 258 239 216 209 223 204 211 213 181 202 205 190 284 253 196 218 225 221 203 191 188 193 198 197 195 195 195 202 209 210
227 227 226 224 223 222 221 220 218 218 218 218 220 221 222 224 225 228 229 224 228 229 228 227 212 196 187 189 202 210 212 205 206 205 205 207 200 201 203 203 206 205 203 194 188 187 187 197 206 205 196 180 203 284 217 186 186 215 231 243 218 207 228 207 207 210 193 201 189 170 264 243 224 228 223 218 199 184 186 193 197 198 198 200 197 199 206 207
224 224 223 221 220 219 219 217 216 215 215 217 217 218 219 219 222 224 224 224 227 229 227 230 222 200 190 198 205 205 204 194 196 200 199 196 191 196 199 200 203 202 200 195 190 190 191 194 203 215 195 174 190 320 175 176 187 194 204 224 225 218 222 203 199 198 200 192 175 167 253 249 237 227 220 215 205 194 193 195 197 199 198 201 201 200 205 207
223 222 219 217 215 214 213 213 214 213 213 217 216 217 216 216 219 216 216 218 221 226 225 229 225 207 198 207 210 207 204 191 190 198 199 191 187 194 198 194 196 199 199 198 197 196 194 200 213 246 243 181 179 253 197 174 195 191 197 203 209 224 229 207 193 189 196 181 172 170 251 250 255 249 228 212 204 202 199 198 197 199 200 200 203 203 206 208
222 220 217 214 213 210 209 210 211 210 211 213 213 213 211 212 213 208 209 211 215 221 220 223 214 203 200 209 206 204 201 197 198 201 201 193 185 191 195 192 192 193 196 197 198 197 196 205 218 245 288 222 174 198 185 181 207 203 208 198 188 206 237 229 186 186 186 160 181 197 223 248 256 256 224 199 197 201 203 203 198 199 200 199 201 204 207 209
221 219 216 214 213 210 207 207 208 206 206 207 207 205 204 206 205 201 204 208 214 216 212 214 207 203 212 198 189 194 196 199 202 199 200 198 191 192 195 193 192 191 190 191 192 192 196 201 198 203 260 282 242 195 184 204 205 194 204 208 193 193 217 223 166 178 179 157 189 208 227 258 269 138 165 182 191 196 207 209 203 201 200 199 201 203 207 208
217 216 215 213 212 209 206 206 205 204 203 201 200 201 203 207 204 201 200 197 201 206 207 213 216 223 217 181 179 196 196 195 197 196 197 196 194 199 198 192 193 193 185 183 186 183 183 180 166 157 202 225 230 204 199 204 190 181 188 197 207 193 205 209 166 168 176 183 199 197 223 246 255 227 177 190 192 197 210 213 212 208 202 200 200 203 208 210
213 213 213 212 212 209 206 204 201 202 198 194 195 195 192 190 191 197 198 194 187 182 192 207 214 231 230 244 312 226 201 193 191 192 192 189 188 198 201 194 196 194 179 170 184 177 161 143 146 165 199 207 210 207 214 203 177 181 178 186 214 199 203 210 169 168 175 191 204 198 219 231 242 242 219 203 195 199 210 213 220 221 213 202 197 203 208 212
212 212 211 212 214 210 206 202 199 197 192 190 187 177 168 167 171 188 191 197 201 197 207 193 196 219 235 262 298 221 192 190 185 183 188 188 183 189 194 187 188 188 181 175 177 175 165 151 191 198 199 202 208 220 234 233 193 185 173 186 214 215 206 197 145 167 177 184 204 210 227 232 233 238 233 217 199 199 205 207 214 221 222 206 197 205 211 215
211 210 208 209 210 207 205 201 197 193 190 191 183 172 170 172 172 177 172 190 212 208 219 228 205 224 233 244 255 200 173 181 181 180 185 185 178 177 178 173 171 184 190 178 154 161 170 183 210 202 192 191 205 222 236 244 219 191 178 183 205 217 216 159 136 161 174 179 212 214 227 240 238 238 240 228 207 203 206 205 208 214 220 212 204 211 216 220
209 207 206 205 204 204 202 198 195 192 190 190 186 181 183 185 190 194 172 170 215 209 216 223 226 240 236 238 246 261 222 179 174 177 177 174 170 166 169 171 169 176 184 175 148 150 178 208 208 193 180 188 204 214 226 241 234 201 181 181 199 204 181 94 135 158 160 172 222 220 228 239 240 239 238 232 226 221 212 208 210 210 213 214 213 215 217 219
207 205 203 201 201 202 200 196 193 191 189 189 190 189 189 193 195 183 169 155 201 208 213 216 223 236 239 237 239 279 288 190 169 172 172 169 167 166 167 171 177 172 171 176 167 169 196 213 200 180 175 192 206 214 222 235 238 224 184 185 195 194 188 157 165 164 156 191 253 266 268 258 249 256 250 236 238 238 227 219 217 213 213 216 219 220 219 219
204 201 200 199 197 199 197 193 191 189 189 190 192 192 191 197 192 160 153 156 147 207 211 212 217 227 232 240 240 274 295 215 174 169 171 169 164 165 171 173 177 173 172 181 180 189 211 186 168 168 177 193 204 215 221 229 230 234 208 194 188 194 189 133 146 160 145 241 265 301 298 272 233 240 252 245 242 244 240 232 226 219 219 221 223 224 224 225
202 198 198 197 196 197 193 188 187 187 187 187 190 194 195 197 189 174 155 152 302 196 206 209 214 229 228 236 247 263 296 265 183 170 172 172 164 159 173 179 179 175 174 180 184 199 207 143 153 170 182 190 201 213 214 212 210 224 220 203 226 225 168 120 136 152 129 255 224 169 253 270 217 218 229 231 232 234 232 231 230 224 223 224 223 222 224 227
202 199 198 196 195 193 186 183 185 185 184 186 190 193 195 194 185 181 166 3 286 171 173 185 192 225 223 229 246 253 292 282 184 172 172 174 170 161 167 181 182 179 173 176 187 205 184 152 160 176 183 184 194 211 212 203 201 220 201 182 234 258 160 137 146 152 183 235 197 174 207 264 278 244 238 233 229 226 221 220 223 224 223 223 223 222 221 222
199 198 198 195 192 185 177 179 184 182 181 186 190 192 192 187 181 177 170 272 269 158 153 165 172 188 191 216 232 222 282 259 165 174 174 171 169 162 165 180 178 179 169 172 200 186 158 161 165 177 183 186 190 198 202 197 199 212 169 168 214 239 170 145 138 159 209 77 354 238 204 260 280 252 243 260 271 258 235 220 217 221 223 224 225 225 224 224
193 195 194 191 188 181 172 176 182 179 182 183 181 184 181 172 170 167 172 253 205 140 150 160 170 173 160 185 198 199 250 257 150 174 176 170 165 160 166 185 184 181 168 176 198 169 157 165 171 176 181 192 193 186 184 186 202 250 174 171 198 217 123 115 120 179 218 61 255 235 162 235 266 236 215 234 251 258 249 236 221 218 221 223 226 227 228 230
188 190 191 187 183 180 174 176 179 178 185 184 173 170 167 163 160 149 209 241 123 115 160 158 160 156 143 144 185 205 247 273 307 172 171 172 168 156 150 181 193 191 181 190 195 167 165 174 176 176 181 194 185 160 163 180 205 288 110 114 112 71 44 49 112 155 77 41 235 206 165 210 260 245 213 210 224 234 237 237 232 226 223 222 225 229 231 232
186 188 190 185 179 179 180 179 179 180 187 183 172 164 160 158 150 135 208 219 78 135 156 153 158 147 137 144 203 215 236 268 299 172 163 169 168 155 142 161 157 252 191 196 192 161 162 172 176 178 185 178 142 123 147 183 185 127 90 84 72 71 61 32 30 68 61 261 226 191 187 202 263 249 213 201 209 209 215 226 232 234 231 227 227 230 231 230
184 186 187 183 179 179 179 176 177 182 183 174 165 161 156 145 137 185 188 117 36 154 149 149 158 145 141 153 192 205 219 255 284 194 158 153 163 158 138 154 130 18 192 173 146 323 153 163 170 175 178 155 116 127 176 179 171 122 103 117 103 87 65 34 25 56 218 242 220 189 192 195 235 249 218 215 219 202 204 215 223 232 237 237 232 231 232 231
182 184 184 183 182 181 177 176 177 174 171 166 160 156 150 132 223 210 176 71 49 174 158 158 162 155 159 173 186 177 193 237 224 232 212 151 163 177 171 176 155 121 204 171 151 187 161 165 152 150 170 155 137 151 157 175 182 129 130 146 127 116 126 168 169 198 230 233 261 180 169 205 234 250 251 263 269 246 215 201 212 236 252 260 244 229 229 230
179 182 184 185 186 187 182 180 180 169 161 161 157 151 152 187 193 204 202 157 179 219 178 164 164 167 166 174 201 181 169 241 203 233 256 173 165 183 188 187 150 111 208 168 152 156 151 300 166 150 161 161 157 160 161 176 182 168 166 166 160 152 163 191 188 221 244 231 217 111 77 269 268 259 233 244 257 256 251 236 235 244 251 269 272 221 219 221
176 179 183 187 189 188 184 183 183 171 160 158 154 148 181 202 187 192 196 198 22 166 193 176 166 166 167 177 195 179 172 256 213 230 264 192 175 183 189 190 165 108 54 162 173 171 162 244 186 168 160 167 170 174 173 169 174 183 179 164 173 167 173 190 178 200 219 86 208 154 115 212 219 230 222 230 248 253 252 243 239 243 236 235 244 215 199 203
172 176 179 183 186 183 178 181 181 168 160 157 151 157 186 197 194 188 189 190 152 154 199 187 168 163 175 184 182 181 188 200 182 214 266 210 196 185 177 187 181 159 135 179 250 188 171 187 191 179 166 172 173 171 164 152 162 187 163 163 195 189 159 148 144 184 159 75 237 199 224 228 214 288 285 268 260 247 234 231 228 234 232 222 231 233 221 214
169 173 174 175 181 180 172 175 177 168 161 155 146 181 196 203 194 173 170 173 171 153 156 183 174 164 180 183 171 182 184 161 158 186 255 230 234 202 183 186 181 173 166 169 180 201 182 166 194 191 93 173 167 158 164 159 159 175 171 178 189 96 118 116 88 81 96 259 236 187 249 280 277 287 275 254 259 247 225 223 220 232 237 225 231 239 238 237
162 164 167 171 178 180 170 168 174 170 162 154 166 193 206 210 218 95 156 174 171 132 138 181 179 171 174 172 177 178 166 143 158 158 194 216 235 208 190 184 180 179 183 175 117 244 172 94 252 219 133 188 144 136 155 151 137 164 184 175 122 46 55 99 166 100 123 247 246 187 224 226 180 263 249 220 237 245 229 211 207 226 231 224 231 238 239 238
157 155 158 167 174 173 167 162 168 169 163 159 195 199 205 196 201 27 137 185 166 122 139 206 190 190 179 170 178 172 163 164 161 144 153 202 236 198 180 177 180 181 192 194 137 295 180 110 313 278 165 290 41 115 134 39 38 153 161 158 142 132 180 155 186 193 177 227 269 220 220 208 196 230 255 200 216 231 229 202 195 213 213 215 223 222 223 224
153 148 148 164 168 164 164 159 157 161 161 178 196 197 197 194 194 129 53 14 113 148 188 186 142 230 201 177 172 165 172 178 162 151 177 186 228 196 182 179 178 181 192 194 164 298 248 150 171 286 312 264 216 161 167 158 14 74 129 159 182 194 180 178 192 178 160 210 266 253 217 227 217 200 209 231 219 215 214 197 196 201 194 202 209 204 206 209
145 135 143 168 169 163 164 159 147 151 166 191 197 204 185 206 225 164 74 38 27 68 177 148 119 237 311 200 174 165 179 185 170 171 183 171 171 201 189 185 176 181 188 188 159 80 348 179 160 133 328 233 193 194 182 176 171 156 163 182 192 182 149 174 198 205 145 180 247 265 249 258 247 186 199 221 220 209 197 184 192 179 165 165 176 187 195 198
138 116 145 164 166 159 157 152 141 158 204 182 205 236 207 215 238 197 94 64 52 33 29 62 123 142 15 257 179 166 176 187 182 182 172 166 177 218 199 191 176 173 179 180 173 149 55 266 152 142 201 206 194 211 202 190 183 178 183 185 182 176 149 163 200 208 200 200 201 231 261 266 267 240 170 177 162 107 91 110 114 119 129 135 141 160 180 189
129 107 152 158 161 155 150 143 148 177 183 192 212 228 224 357 319 234 58 90 118 42 24 52 106 125 98 51 30 128 162 185 186 190 183 184 197 200 187 187 178 171 177 182 174 153 86 84 136 146 186 195 209 285 300 245 196 192 200 185 177 177 165 179 205 196 191 220 219 192 278 276 278 330 35 102 114 97 83 95 104 108 119 134 141 147 161 177
101 107 144 154 159 156 153 143 143 157 179 214 222 221 161 52 32 343 10 136 155 106 73 75 118 140 143 140 92 66 66 188 187 196 193 190 205 191 171 176 175 171 177 177 164 150 91 97 139 107 62 13 346 322 313 337 117 180 211 185 173 190 192 188 199 176 178 207 206 203 254 261 287 321 357 93 106 107 100 105 116 122 127 134 135 139 151 159
102 112 138 157 163 160 164 177 158 180 200 196 225 223 205 232 235 243 235 190 174 137 155 197 255 265 118 121 120 107 49 356 200 208 202 189 205 180 169 173 171 171 186 181 170 168 150 149 148 122 106 25 5 319 284 297 225 186 198 195 188 194 195 190 192 182 200 205 192 199 235 240 276 315 340 71 94 123 155 158 158 157 152 153 151 147 157 165
110 109 139 164 171 170 185 268 150 184 186 177 209 215 220 243 229 254 282 262 228 219 168 183 201 197 107 117 117 100 93 43 329 238 228 203 184 160 173 176 172 176 188 172 155 153 149 165 161 153 166 177 188 209 208 201 200 189 189 196 200 196 192 197 204 198 214 207 190 205 228 229 310 310 87 80 101 146 172 181 186 188 179 172 172 168 169 174
124 114 133 158 177 188 230 280 317 248 184 177 188 208 217 228 214 222 249 285 284 267 276 249 204 168 112 127 125 110 127 125 117 304 319 307 333 340 181 180 179 182 178 162 149 139 108 192 193 204 195 182 196 200 139 135 164 179 187 194 200 201 194 192 195 207 215 204 194 225 234 236 249 228 162 154 200 189 184 194 198 200 201 194 185 182 180 179
129 145 154 153 167 197 242 264 278 286 188 176 165 177 200 217 233 201 190 219 271 250 242 278 198 195 174 144 142 166 152 133 152 212 296 237 306 322 189 182 188 182 167 154 148 137 76 205 197 243 257 263 312 135 135 146 177 186 184 186 193 195 189 188 205 215 211 201 224 232 228 233 236 213 188 206 202 184 182 197 201 195 194 201 198 195 192 187
136 154 164 166 158 168 204 208 207 214 208 190 176 170 187 199 215 202 181 207 242 210 191 234 209 223 245 178 158 163 152 148 165 171 162 176 255 310 205 186 190 172 154 150 155 143 105 198 184 210 251 274 306 322 149 166 189 192 184 185 189 186 187 199 213 218 206 204 232 229 222 232 230 199 207 219 188 173 173 172 178 179 177 186 191 196 200 195
139 134 159 175 173 166 185 189 185 195 215 210 192 193 197 196 202 207 189 184 230 203 186 223 221 208 226 229 218 189 166 176 182 160 152 176 209 271 226 187 181 164 152 158 172 156 154 186 173 179 230 260 284 313 252 177 179 183 190 194 189 187 197 205 214 221 213 221 239 234 230 239 227 182 204 215 169 164 168 163 171 179 176 177 187 199 205 201
156 130 155 178 189 173 180 182 171 185 213 217 209 211 213 209 207 210 192 169 190 189 182 216 232 208 205 218 216 223 208 188 182 162 151 155 222 253 241 257 165 163 162 166 172 173 189 190 163 164 207 250 240 267 294 253 195 186 192 196 190 191 202 210 217 218 209 223 238 236 237 246 229 174 201 209 177 157 165 187 199 197 191 194 205 212 212 209
165 147 151 166 185 172 174 178 175 186 201 201 207 209 211 220 215 210 201 188 193 196 187 209 227 215 207 223 225 232 221 192 188 167 153 171 203 204 214 245 158 162 175 174 168 179 191 181 151 154 196 227 209 209 227 246 249 217 198 193 191 194 201 209 215 211 201 219 233 234 241 245 218 163 201 210 193 181 207 229 242 251 242 228 223 222 219 216
168 153 151 163 176 169 174 185 181 188 202 203 211 209 208 220 212 200 212 198 199 213 214 209 214 212 220 230 227 227 220 207 208 197 184 193 208 230 251 268 252 181 184 174 168 177 180 174 153 158 200 221 194 182 192 204 236 237 211 197 195 199 204 208 216 214 209 216 223 227 236 230 166 178 206 201 196 211 228 236 244 250 245 236 230 228 227 225